This demonstration page uses our WeatherBlox Daily Observations layout. Learn more.

Left ArrowRight Arrow

40.92501, -98.34201

Hourly Observations for May 30, 2020

Temp ( °F °C ) Dew Point ( °F °C ) Humidity (%) Winds ( mph kmh ) Pressure ( in mb ) Visibility ( mi km ) Precip ( " mm )
12:53 am 00:53 Clear 61 16.1 45 7.2 56 56 ESE 7 11 30.20 1023 10 16 0.00 0.00
1:53 am 01:53 Clear 60 15.6 44 6.7 56 56 E 6 9 30.19 1022 10 16 0.00 0.00
2:53 am 02:53 Clear 60 15.6 43 6.1 53 53 E 8 13 30.18 1022 10 16 0.00 0.00
3:53 am 03:53 Mostly Clear 61 16.1 44 6.7 54 54 ESE 7 11 30.17 1022 10 16 0.00 0.00
4:53 am 04:53 Mostly Clear 61 16.1 43 6.1 52 52 ESE 9 15 30.16 1021 10 16 0.00 0.00
5:53 am 05:53 Mostly Cloudy 61 16.1 45 7.2 56 56 ESE 5 7 30.19 1022 10 16 0.00 0.00
6:53 am 06:53 Mostly Cloudy 61 16.1 47 8.3 60 60 ENE 13 20 30.20 1023 10 16 0.00 0.00
7:53 am 07:53 Partly Cloudy 62 16.7 46 7.8 56 56 ENE 17 28 30.21 1023 10 16 0.00 0.00
8:53 am 08:53 Sunny 63 17.2 48 8.9 58 58 E 17 28 30.21 1023 10 16 0.00 0.00
9:53 am 09:53 Cloudy 64 17.8 48 8.9 56 56 E 15 24 30.24 1024 10 16 0.00 0.00
10:53 am 10:53 Partly Cloudy 64 17.8 48 8.9 56 56 E 17 28 30.24 1024 10 16 0.00 0.00
11:53 am 11:53 Mostly Cloudy 64 17.8 49 9.4 58 58 E 20 31 30.24 1024 10 16 0.00 0.00
12:53 pm 12:53 Mostly Cloudy 67 19.4 49 9.4 53 53 ESE 21 33 30.22 1023 10 16 0.00 0.00
1:53 pm 13:53 Sunny 71 21.7 50 10 47 47 E 20 31 30.20 1023 10 16 0.00 0.00
2:53 pm 14:53 Sunny 72 22.2 50 10 46 46 E 22 35 30.21 1023 10 16 0.00 0.00
3:53 pm 15:53 Sunny 71 21.7 50 10 47 47 ESE 16 26 30.20 1023 10 16 0.00 0.00
4:53 pm 16:53 Cloudy 73 22.8 51 10.6 46 46 ESE 21 33 30.18 1022 10 16 0.00 0.00
5:53 pm 17:53 Cloudy 71 21.7 51 10.6 49 49 E 18 30 30.18 1022 10 16 0.00 0.00
6:53 pm 18:53 Sunny 69 20.6 51 10.6 53 53 E 20 31 30.16 1022 10 16 0.00 0.00
7:53 pm 19:53 Sunny 66 18.9 52 11.1 61 61 E 18 30 30.17 1022 10 16 0.00 0.00
8:53 pm 20:53 Sunny 63 17.2 51 10.6 65 65 E 14 22 30.18 1022 10 16 0.00 0.00
9:53 pm 21:53 Mostly Cloudy 62 16.7 51 10.6 67 67 E 14 22 30.19 1022 10 16 0.00 0.00
10:53 pm 22:53 Cloudy 61 16.1 51 10.6 70 70 E 12 19 30.21 1023 10 16 0.00 0.00
11:53 pm 23:53 Mostly Cloudy 61 16.1 51 10.6 70 70 ESE 9 15 30.20 1023 10 16 0.00 0.00

Powered by AerisWeather